Orbital Elements at Epoch 2459200.5 (2020-Dec-17.0) TDB
Reference: JPL 23 (heliocentric ecliptic J2000)
Element | Value | Uncertainty (1-sigma) | Units |
e | .07200660748715623 | 3.5766e-08 | |
a | 2.801595074088879 | 1.8895e-08 | au |
q | 2.599861717251011 | 1.0181e-07 | au |
i | 3.882113835816552 | 4.7379e-06 | deg |
node | 29.68742600319221 | 6.3509e-05 | deg |
peri | 48.5822166231865 | 7.3938e-05 | deg |
M | 52.69148062276819 | 3.7073e-05 | deg |
tp | 2458949.805748148798 (2020-Apr-10.30574815) | 0.00017603 | TDB |
period | 1712.799291265985 4.69 | 1.7328e-05 4.744e-08 | d yr |
n | .2101822448407906 | 2.1263e-09 | deg/d |
Q | 3.003328430926747 | 2.0256e-08 | au |
|
| | Orbit Determination Parameters
Additional Information
|